Temperature
28 29 29 29 29 29 29 29 28 26 25 25 24 22 21 20 19 19 18 17 16 16 15 15 16 16 16 16 16 16 16 16 16 16 16 16 16 16 15 15 15 15 15 15
29 29 29 29 29 29 29 29 28 25 24 25 23 22 22 20 19 18 18 17 17 16 16 16 16 16 16 16 16 16 16 16 16 16 16 15 15 15 15 15 14 14 14 15
29 29 29 29 29 29 29 29 28 26 24 25 25 23 23 21 20 19 18 18 17 17 17 16 16 16 16 15 16 16 16 16 16 16 15 15 15 15 15 15 14 14 14 14
29 29 29 29 29 29 28 29 28 26 26 26 26 25 23 23 22 21 20 19 18 18 17 17 16 16 16 15 15 15 15 15 15 15 15 14 14 14 14 14 14 14 14 14
29 29 28 28 28 28 28 28 28 27 27 27 26 26 24 23 23 22 21 19 19 18 17 17 16 16 16 15 15 15 15 15 15 14 14 14 14 14 14 13 13 13 13 14
28 28 28 28 28 28 27 27 27 27 28 26 26 26 24 24 23 23 21 20 19 18 17 17 16 16 16 15 15 15 14 14 14 13 13 13 13 13 13 13 13 13 13 13
28 28 28 28 28 28 28 27 26 26 26 26 26 26 23 23 22 22 21 20 19 18 18 17 16 16 15 15 15 14 13 13 13 13 13 12 12 12 12 12 12 12 12 12
27 27 28 28 28 28 28 28 26 25 25 26 25 25 23 22 21 20 20 20 19 18 18 17 16 16 15 15 14 14 13 12 12 12 12 12 12 12 12 12 12 12 12 12
27 27 28 27 27 27 28 28 28 27 26 26 26 24 22 21 21 21 20 19 19 18 17 17 16 16 15 14 13 13 12 12 12 11 11 11 11 11 11 11 11 11 11 11
27 26 27 28 28 27 27 27 27 26 25 25 25 24 23 22 22 21 21 20 19 18 17 17 16 15 14 13 13 12 12 11 11 11 10 11 10 10 10 10 10 10 10 10
27 26 27 27 26 26 27 26 26 26 25 24 24 24 23 22 21 21 21 19 18 17 17 16 15 14 13 13 12 12 11 11 10 10 10 9 9 9 9 9 9 9 9 9
26 27 26 26 26 26 26 25 26 25 24 24 24 24 22 21 21 20 19 18 17 16 16 15 14 13 13 12 12 11 10 10 10 9 9 8 8 8 8 8 8 8 8 8
26 25 25 25 25 26 25 25 25 25 25 24 24 24 21 21 21 20 19 18 17 16 15 14 13 13 12 11 11 10 9 9 9 8 8 8 8 8 8 8 7 7 7 8
25 25 25 25 25 25 25 24 24 25 25 24 23 23 23 22 21 20 18 17 16 15 14 13 13 12 11 10 10 9 9 8 8 8 7 7 7 7 7 7 7 7 7 7
26 26 25 25 25 25 25 24 24 24 23 23 23 22 23 22 20 18 17 16 15 15 14 13 12 11 10 10 9 9 8 8 7 7 7 7 7 6 6 6 6 6 6 6
25 25 25 25 25 24 24 24 23 23 23 23 23 23 22 20 19 18 17 16 15 14 13 12 11 10 10 9 8 8 8 7 7 6 6 6 6 6 6 6 6 6 6 6
26 25 24 25 25 24 24 24 23 23 23 23 22 22 22 20 19 17 16 15 14 13 12 11 10 10 9 9 8 8 7 7 6 6 6 6 6 6 6 6 6 5 5 5
24 24 24 25 24 23 24 24 24 23 23 23 22 22 21 19 17 16 15 14 13 12 11 10 10 9 9 8 8 7 7 7 6 6 6 6 6 6 6 5 5 5 5 5
24 24 25 25 24 25 24 23 23 22 22 23 22 21 19 18 17 18 15 13 12 11 10 10 9 9 8 8 7 7 7 6 6 6 6 6 5 5 5 5 5 5 5 5
23 23 24 24 23 23 24 23 22 22 22 22 21 20 19 18 18 18 15 13 12 11 10 9 9 8 8 7 7 6 6 6 6 6 6 5 5 5 5 5 5 5 5 5
24 24 24 24 24 25 24 22 21 21 22 20 19 18 17 17 16 15 13 12 11 10 9 9 8 8 8 7 6 6 6 6 6 6 6 6 5 5 5 5 5 5 5 5
25 25 24 24 23 24 22 22 22 22 20 19 18 17 16 15 15 14 13 11 10 10 9 9 8 8 7 7 6 6 6 6 6 6 6 6 6 6 5 5 5 5 5 5
25 25 25 24 24 22 22 22 21 20 19 18 18 17 16 15 14 13 12 11 10 10 9 8 8 7 7 7 6 6 6 6 6 6 6 6 6 6 6 6 6 5 5 5
25 22 23 23 24 23 21 21 20 19 18 17 16 16 15 14 14 13 11 11 10 9 9 8 8 7 7 7 6 6 6 6 6 6 6 6 6 6 6 6 6 6 5 5
25 23 23 23 23 22 21 21 20 19 17 16 16 15 14 13 13 12 11 10 9 9 8 8 7 7 7 7 6 6 6 6 6 6 6 6 6 6 6 6 6 6 6 5
25 24 23 23 24 23 23 21 20 18 17 16 15 15 14 13 12 11 11 10 9 9 8 8 7 7 7 6 6 6 6 6 6 6 6 6 6 7 7 7 6 6 6 6
Wind_Speed
5 6 2 1 3 3 1 1 3 6 4 5 8 8 7 6 6 6 6 7 7 7 6 6 6 5 5 5 5 5 6 6 6 6 7 8 8 7 7 7 8 9 8 7
6 3 2 2 2 3 4 3 4 6 5 3 8 8 7 6 6 5 6 6 6 7 6 5 5 5 5 5 5 5 6 7 7 6 6 6 7 7 6 6 7 9 9 7
3 3 3 3 3 4 4 4 1 5 6 6 8 8 7 7 6 5 5 5 5 5 5 4 4 4 4 4 5 5 6 7 7 8 7 7 6 6 7 8 7 8 9 9
3 1 3 5 4 5 4 1 2 7 8 5 8 4 8 7 6 5 5 4 4 4 3 2 2 2 4 5 5 6 7 7 8 8 8 9 9 9 8 8 7 8 8 8
3 3 5 5 3 5 2 0 4 7 7 5 6 5 8 7 6 5 4 3 3 2 1 1 3 4 6 7 8 8 9 9 9 9 9 9 10 9 9 9 8 8 7 7
2 1 3 3 2 1 3 4 5 7 8 7 2 5 5 5 3 4 4 4 3 3 3 4 6 7 8 9 10 11 11 11 11 11 11 11 11 11 12 11 10 9 7 6
1 3 2 2 3 4 5 7 6 6 6 2 3 4 5 4 2 1 2 3 4 5 6 7 9 10 11 12 12 12 13 13 13 13 13 13 13 14 14 13 12 11 10 8
3 1 5 5 4 3 3 6 6 7 7 3 3 1 5 3 1 2 3 5 6 7 8 9 10 11 12 13 13 13 14 14 15 15 14 14 14 14 14 14 14 14 12 11
5 3 3 4 4 4 3 3 5 7 7 7 1 5 6 3 1 3 5 6 8 8 9 11 12 13 13 14 14 15 15 16 16 16 16 15 15 15 16 16 15 15 13 12
6 4 2 1 2 5 4 2 4 6 6 7 4 2 2 3 3 5 6 7 8 10 11 13 14 14 13 14 15 16 16 16 17 17 16 15 16 16 16 16 17 16 16 15
5 4 0 2 4 6 2 2 4 4 5 7 8 3 5 4 5 7 7 8 10 12 14 14 14 14 14 16 17 17 17 18 18 18 17 17 17 17 17 17 17 17 16 16
4 4 1 3 4 3 5 5 4 5 5 5 8 3 7 3 5 7 9 10 12 13 14 15 15 15 16 17 18 18 18 19 19 18 18 18 18 18 18 18 18 17 17 17
2 3 3 6 6 3 2 3 3 4 4 5 8 6 4 3 7 8 10 12 14 15 15 15 15 16 17 17 18 18 19 19 19 19 19 19 19 19 19 19 18 18 18 17
3 2 5 5 4 2 1 0 3 5 5 7 8 11 11 11 10 10 12 14 16 15 15 15 16 17 17 18 18 18 19 18 19 18 19 19 19 19 19 19 19 19 18 18
3 1 2 2 2 3 3 3 2 3 5 8 10 13 13 12 11 11 13 16 16 16 15 16 17 18 18 18 18 18 18 18 18 18 19 19 19 19 19 19 19 19 18 19
1 2 3 3 3 5 7 6 5 4 5 8 11 12 9 8 10 13 15 16 16 16 16 18 19 19 19 18 18 18 18 18 18 19 19 19 19 19 19 20 19 19 19 19
2 3 5 6 2 8 8 8 7 5 6 8 11 13 13 13 14 15 15 15 14 16 18 19 19 18 18 18 18 18 18 18 18 18 19 19 19 20 20 20 20 19 19 18
4 5 5 7 6 7 2 3 3 6 9 8 9 12 12 13 14 14 11 10 14 16 18 18 18 19 18 18 17 17 17 18 18 18 19 19 20 20 20 20 19 19 17 16
5 6 6 7 10 10 2 5 4 6 10 5 8 12 12 12 14 8 3 9 14 16 17 17 17 18 18 17 17 17 17 18 18 18 19 19 20 20 20 19 19 17 15 14
5 7 9 9 11 11 1 7 3 4 7 0 6 10 11 12 12 9 11 14 15 16 16 16 17 17 17 16 17 17 17 18 18 18 19 19 19 19 19 19 17 15 13 13
6 7 10 12 12 8 6 8 5 6 7 4 6 8 9 10 11 14 15 15 15 16 17 16 16 16 15 16 16 17 17 17 18 18 18 18 18 18 18 16 14 13 12 11
8 7 7 7 8 4 10 7 5 6 3 4 6 7 8 10 12 13 14 14 15 16 17 16 15 16 15 15 15 17 17 17 17 18 18 18 17 16 15 14 13 12 11 9
6 6 6 6 6 2 7 6 3 3 5 5 5 6 7 10 12 13 13 14 15 16 16 15 16 16 15 15 15 16 17 17 17 18 18 17 16 15 14 13 12 10 8 6
5 2 6 8 9 5 7 8 7 6 6 5 4 6 7 10 12 13 13 13 15 15 15 15 16 16 16 16 16 16 16 16 16 17 17 16 15 14 13 10 9 9 8 6
10 5 8 11 11 7 9 10 9 7 7 6 5 6 7 9 11 12 12 13 14 15 15 15 15 15 16 16 16 16 15 15 16 16 16 15 13 12 11 10 8 8 7 6
9 10 11 10 6 6 4 4 6 8 8 7 6 6 7 8 10 11 12 12 13 15 15 15 15 16 16 16 16 16 15 14 15 14 14 12 11 11 10 9 7 1 3 2
Wind_Direction
215 234 221 19 332 338 293 257 111 103 110 89 101 102 90 86 81 81 79 78 79 77 76 69 66 62 59 49 38 24 12 1 350 349 343 341 337 334 334 338 340 329 315 300
214 200 23 327 254 229 220 213 137 123 137 137 125 112 107 96 86 79 86 90 94 95 93 82 72 64 52 44 33 21 11 1 352 353 337 332 331 330 340 346 345 347 341 323
263 40 359 270 221 230 232 266 193 152 156 165 159 145 139 124 119 113 108 108 106 102 97 90 74 56 43 30 16 5 355 347 349 341 336 338 332 331 341 345 348 352 350 346
269 329 299 277 260 276 256 289 208 173 192 194 222 214 154 150 148 142 135 130 122 122 114 95 58 22 6 357 348 343 338 337 334 328 336 338 334 333 336 333 339 339 344 347
301 322 299 279 312 304 355 83 201 204 236 232 213 260 146 167 177 163 156 156 157 156 158 335 337 336 332 331 331 329 329 326 322 317 311 308 314 321 322 326 326 325 331 338
322 329 318 325 336 360 142 166 189 216 237 240 202 279 149 158 167 162 173 192 212 238 273 300 312 316 318 321 322 322 323 320 316 308 302 297 299 303 308 310 312 312 314 317
123 106 62 321 243 180 227 254 254 240 238 235 134 265 92 98 121 190 236 239 248 264 283 297 307 313 317 319 322 322 321 319 317 310 302 296 293 292 289 293 299 300 299 297
318 53 37 11 337 301 289 291 301 303 307 313 187 233 101 93 117 260 274 275 274 280 292 301 307 312 313 317 321 321 321 318 316 312 308 302 295 290 291 294 296 294 291 289
343 354 65 42 28 319 287 321 331 294 289 289 247 127 130 141 208 271 281 284 287 293 300 304 309 313 314 319 322 320 318 315 313 311 307 298 295 294 294 293 285 283 283 282
342 311 38 104 194 59 19 347 302 309 315 306 298 234 143 122 348 327 308 305 306 307 308 311 314 315 317 318 318 317 315 313 312 310 309 306 305 299 294 290 289 287 284 279
339 305 141 143 39 21 11 12 337 317 326 314 314 6 84 31 340 322 320 317 316 316 316 317 316 317 317 316 317 317 316 314 312 311 310 307 304 301 298 292 287 284 280 277
350 311 312 104 89 43 44 17 343 322 326 308 305 1 107 17 320 312 311 315 318 318 316 316 317 319 318 317 318 317 315 313 311 311 308 305 304 301 298 295 293 289 283 277
355 299 244 177 174 146 57 38 359 324 303 310 310 341 114 304 303 304 307 314 318 319 318 317 318 319 317 317 316 314 312 311 312 311 309 306 304 302 300 298 295 291 286 280
310 5 345 5 17 350 283 32 344 320 321 321 325 322 328 329 319 314 315 318 319 318 318 318 318 316 317 315 314 313 311 312 312 312 309 306 305 303 301 299 296 291 286 280
292 22 19 8 336 288 276 257 282 332 337 321 325 320 328 338 330 321 316 318 318 318 319 319 318 318 317 316 315 314 313 313 314 311 308 307 307 304 302 299 296 292 287 281
324 314 283 254 245 274 265 247 246 277 307 313 313 324 349 327 312 313 318 320 318 319 320 320 319 319 318 317 315 315 314 314 313 310 310 309 308 306 303 301 297 293 288 283
235 266 290 297 282 280 266 233 235 269 307 310 315 328 330 316 317 319 318 317 318 320 320 320 319 318 317 316 316 314 314 314 312 311 310 310 309 307 305 302 299 295 291 286
246 263 279 295 288 282 33 117 229 278 297 298 302 317 323 318 316 307 303 313 318 319 319 319 318 318 318 318 317 316 315 313 312 311 312 313 311 310 308 303 300 296 292 285
231 244 277 286 290 294 186 181 218 282 299 300 312 319 319 321 310 314 22 325 318 318 318 317 317 317 318 317 319 318 314 313 312 313 316 316 313 311 309 306 305 302 296 287
199 228 258 273 290 296 347 139 150 281 283 84 312 312 317 319 316 338 346 328 323 321 320 318 317 317 318 321 321 317 314 313 315 317 316 313 310 309 310 309 308 306 300 290
224 232 251 271 278 285 121 144 178 280 342 358 313 311 312 316 312 317 322 323 322 320 320 320 318 317 320 321 319 314 313 313 315 315 312 310 311 310 310 311 310 308 304 296
271 269 260 272 276 288 138 168 241 313 342 309 306 307 309 309 311 315 319 320 320 321 322 323 321 319 320 321 318 314 313 315 315 314 312 311 313 313 314 314 312 311 305 297
252 284 292 274 290 70 187 221 245 282 283 293 298 306 309 309 314 318 319 320 321 322 322 323 321 319 320 321 319 313 313 315 315 314 313 313 314 315 316 317 318 316 310 302
240 215 258 264 270 249 228 232 239 245 260 274 280 297 304 308 314 318 320 320 322 323 323 324 322 320 320 321 318 315 314 317 316 314 314 315 316 316 319 320 321 324 324 321
288 246 257 261 271 263 236 229 235 233 237 247 260 282 300 307 311 317 318 319 322 322 323 323 321 318 317 320 319 318 319 320 316 314 315 317 318 316 316 320 327 329 336 345
263 250 254 272 276 248 238 192 210 220 228 239 258 278 292 300 308 314 316 319 320 321 322 322 322 320 319 320 319 321 324 322 317 315 317 318 317 317 317 322 326 290 289 343
Height
1502 1499 1494 1493 1492 1493 1493 1494 1499 1505 1510 1510 1515 1519 1523 1525 1525 1526 1526 1527 1527 1526 1526 1526 1525 1525 1524 1523 1522 1521 1520 1519 1517 1515 1514 1511 1509 1506 1503 1499 1496 1492 1490 1488
1499 1496 1495 1495 1495 1494 1494 1496 1500 1508 1511 1511 1516 1520 1523 1525 1527 1527 1528 1528 1528 1528 1528 1527 1527 1526 1525 1523 1522 1521 1519 1518 1516 1514 1512 1509 1507 1504 1501 1498 1494 1491 1488 1485
1496 1495 1495 1494 1493 1494 1493 1494 1496 1504 1510 1509 1511 1518 1520 1524 1527 1528 1529 1529 1529 1529 1529 1528 1527 1526 1525 1524 1522 1520 1518 1517 1515 1513 1511 1509 1506 1503 1500 1497 1493 1490 1487 1485
1494 1494 1495 1493 1492 1492 1495 1491 1494 1501 1506 1503 1507 1511 1516 1518 1521 1525 1527 1528 1528 1529 1529 1528 1527 1526 1525 1523 1521 1519 1517 1515 1513 1511 1509 1506 1504 1501 1498 1495 1491 1488 1486 1483
1494 1494 1495 1494 1493 1493 1493 1493 1494 1497 1498 1500 1502 1504 1512 1515 1518 1520 1524 1527 1528 1528 1528 1527 1527 1525 1524 1522 1520 1518 1515 1513 1510 1508 1506 1504 1502 1499 1497 1493 1490 1487 1484 1481
1494 1495 1495 1493 1493 1493 1494 1495 1496 1495 1494 1506 1501 1505 1512 1511 1515 1518 1522 1525 1527 1527 1527 1526 1525 1524 1522 1521 1518 1516 1513 1510 1507 1505 1502 1500 1498 1495 1493 1490 1487 1485 1482 1479
1496 1493 1493 1494 1491 1493 1493 1497 1505 1507 1506 1505 1500 1503 1514 1514 1517 1519 1521 1523 1525 1525 1525 1524 1523 1522 1520 1518 1515 1512 1509 1506 1504 1501 1498 1496 1493 1491 1488 1486 1484 1481 1479 1477
1502 1501 1495 1494 1494 1493 1492 1494 1506 1516 1510 1500 1500 1504 1515 1517 1520 1522 1522 1522 1523 1523 1523 1522 1521 1519 1517 1514 1512 1509 1505 1502 1499 1497 1494 1491 1488 1486 1484 1482 1479 1477 1475 1473
1502 1503 1496 1497 1496 1493 1492 1492 1491 1497 1498 1504 1499 1507 1515 1518 1519 1520 1520 1521 1521 1521 1521 1520 1518 1516 1513 1511 1508 1505 1501 1498 1494 1491 1488 1485 1482 1480 1477 1474 1472 1471 1469 1468
1499 1505 1497 1495 1493 1496 1494 1493 1494 1499 1512 1512 1503 1504 1510 1514 1516 1516 1517 1518 1519 1519 1518 1517 1515 1512 1510 1507 1504 1500 1496 1492 1489 1485 1482 1479 1476 1473 1470 1468 1465 1463 1461 1460
1499 1504 1500 1496 1501 1502 1497 1497 1498 1497 1504 1514 1514 1508 1508 1513 1516 1516 1516 1517 1517 1517 1516 1514 1511 1509 1506 1503 1499 1495 1491 1487 1483 1479 1475 1471 1468 1465 1462 1460 1457 1455 1453 1452
1503 1500 1502 1502 1503 1501 1499 1502 1501 1509 1510 1508 1510 1509 1510 1513 1514 1515 1516 1516 1516 1515 1513 1510 1508 1505 1502 1498 1494 1490 1486 1481 1477 1473 1469 1464 1461 1457 1454 1452 1449 1447 1445 1443
1504 1505 1509 1508 1507 1503 1503 1504 1502 1502 1504 1508 1512 1509 1510 1511 1512 1514 1514 1514 1513 1512 1509 1507 1504 1501 1497 1493 1489 1485 1480 1476 1471 1467 1462 1457 1453 1450 1446 1443 1440 1438 1436 1434
1506 1505 1508 1511 1507 1504 1506 1507 1505 1504 1506 1509 1509 1509 1504 1505 1508 1510 1512 1512 1510 1508 1506 1503 1500 1497 1493 1489 1484 1479 1474 1470 1465 1460 1455 1451 1446 1442 1438 1435 1431 1429 1426 1424
1505 1505 1506 1505 1504 1504 1505 1507 1507 1508 1510 1510 1510 1508 1504 1506 1509 1511 1511 1509 1507 1505 1502 1500 1496 1492 1488 1483 1479 1474 1469 1464 1459 1454 1449 1444 1440 1435 1431 1427 1423 1420 1417 1414
1506 1507 1507 1507 1506 1505 1507 1507 1508 1509 1508 1507 1507 1505 1504 1508 1510 1509 1508 1507 1504 1502 1499 1496 1492 1487 1483 1478 1473 1468 1463 1458 1453 1448 1443 1438 1433 1428 1423 1419 1415 1411 1407 1405
1503 1507 1509 1504 1503 1506 1506 1502 1505 1506 1504 1506 1506 1505 1504 1505 1506 1507 1506 1504 1502 1499 1496 1492 1487 1483 1478 1474 1468 1463 1458 1453 1448 1443 1437 1432 1427 1421 1416 1411 1406 1402 1398 1395
1506 1507 1506 1503 1508 1517 1503 1499 1502 1505 1503 1502 1502 1503 1504 1505 1505 1504 1503 1502 1500 1496 1492 1488 1483 1478 1474 1469 1464 1458 1453 1448 1443 1438 1432 1427 1421 1415 1409 1403 1398 1393 1388 1385
1505 1506 1504 1503 1503 1499 1498 1501 1502 1504 1502 1500 1502 1503 1503 1503 1502 1497 1499 1499 1497 1493 1489 1484 1479 1475 1469 1464 1459 1454 1448 1443 1438 1433 1427 1421 1415 1408 1402 1396 1390 1385 1380 1376
1505 1505 1503 1502 1510 1509 1496 1498 1503 1505 1500 1499 1502 1502 1502 1501 1496 1495 1497 1496 1493 1489 1485 1480 1475 1470 1465 1460 1455 1449 1444 1439 1434 1428 1422 1415 1409 1403 1396 1390 1384 1378 1373 1369
1500 1501 1501 1499 1501 1491 1493 1499 1503 1505 1500 1501 1501 1501 1501 1500 1500 1498 1495 1492 1489 1485 1481 1476 1471 1466 1462 1456 1451 1445 1440 1435 1429 1423 1417 1410 1404 1398 1392 1385 1379 1374 1369 1364
1495 1494 1497 1498 1501 1496 1495 1497 1498 1497 1499 1499 1499 1500 1499 1499 1497 1495 1492 1489 1485 1481 1477 1472 1467 1462 1457 1452 1447 1441 1436 1431 1424 1418 1412 1406 1400 1394 1388 1382 1376 1370 1365 1361
1492 1490 1487 1490 1492 1492 1493 1493 1495 1496 1497 1497 1497 1497 1497 1496 1494 1492 1489 1486 1482 1478 1473 1469 1464 1458 1454 1449 1443 1438 1432 1426 1420 1414 1408 1402 1396 1390 1384 1379 1373 1367 1363 1359
1486 1493 1491 1490 1485 1488 1491 1492 1493 1494 1495 1495 1495 1495 1494 1493 1491 1489 1486 1483 1479 1475 1470 1465 1460 1455 1450 1445 1440 1434 1428 1422 1416 1410 1404 1398 1392 1387 1381 1376 1371 1366 1362 1359
1486 1488 1487 1487 1485 1486 1487 1488 1490 1491 1491 1492 1492 1492 1492 1490 1489 1486 1483 1480 1476 1471 1467 1462 1457 1451 1446 1441 1436 1430 1425 1418 1412 1406 1401 1395 1390 1384 1379 1374 1370 1365 1362 1358
1480 1482 1483 1481 1479 1482 1483 1485 1486 1487 1488 1489 1489 1489 1489 1488 1486 1483 1480 1477 1473 1468 1463 1458 1453 1448 1443 1437 1432 1426 1421 1415 1409 1403 1398 1392 1387 1382 1377 1373 1368 1364 1361 1358